CUTE-1 (CO-55)

Last updated on Sun Apr 12 2026 00:03:15 GMT+0000 (Coordinated Universal Time)

1 27844U 03031E 26101.51137433 .00000281 00000+0 14073-3 0 9997 2 27844 98.6768 110.9039 0010030 26.1809 333.9875 14.24294360182187
UTC large
Height (km)
Speed (km/s)
/
Latitude / Longitude
Inclination (degrees)
Orbital Period (minutes)
Azimuth
Elevation
Range (km)
Doppler Factor

Next 0 passes for location: London (51.5072 / 0.1276)

Sorry there are no passes over London.
CUTE-1 (CO-55)